owner,sensor,date,latitude,longitude,vertical_datum,sea_water_practical_salinity,qcFlag 
DISL,ioos:station:DISL:CATA:1,2009-10-01T00:00:00Z,30.3085,-88.1395,2.623,7.31,1111122 
DISL,ioos:station:DISL:CATA:1,2009-10-01T00:30:00Z,30.3085,-88.1395,2.619,7.28,1111122 
DISL,ioos:station:DISL:CATA:1,2009-10-01T01:00:00Z,30.3085,-88.1395,2.631,7.29,1111122 
DISL,ioos:station:DISL:CATA:1,2009-10-01T01:30:00Z,30.3085,-88.1395,2.653,7.28,1111122 
DISL,ioos:station:DISL:CATA:1,2009-10-01T02:00:00Z,30.3085,-88.1395,2.662,7.16,1111122 
DISL,ioos:station:DISL:CATA:1,2009-10-01T02:30:00Z,30.3085,-88.1395,2.673,7.08,1111122 
DISL,ioos:station:DISL:CATA:1,2009-10-01T03:00:00Z,30.3085,-88.1395,2.685,7.18,1111122 
DISL,ioos:station:DISL:CATA:1,2009-10-01T03:30:00Z,30.3085,-88.1395,2.69,7.2,1111122 
DISL,ioos:station:DISL:CATA:1,2009-10-01T04:00:00Z,30.3085,-88.1395,2.678,7.3,1111122 
DISL,ioos:station:DISL:CATA:1,2009-10-01T04:30:00Z,30.3085,-88.1395,2.679,7.27,1111122 
DISL,ioos:station:DISL:CATA:1,2009-10-01T05:00:00Z,30.3085,-88.1395,2.681,7.35,1111122 
DISL,ioos:station:DISL:CATA:1,2009-10-01T05:30:00Z,30.3085,-88.1395,2.673,7.37,1111122 
DISL,ioos:station:DISL:CATA:1,2009-10-01T06:00:00Z,30.3085,-88.1395,2.669,7.19,1111122 
DISL,ioos:station:DISL:CATA:1,2009-10-01T06:30:00Z,30.3085,-88.1395,2.668,7.23,1111122 
DISL,ioos:station:DISL:CATA:1,2009-10-01T07:00:00Z,30.3085,-88.1395,2.674,7.23,1111122 
DISL,ioos:station:DISL:CATA:1,2009-10-01T07:30:00Z,30.3085,-88.1395,2.667,7.25,1111122 
DISL,ioos:station:DISL:CATA:1,2009-10-01T08:00:00Z,30.3085,-88.1395,2.671,7.18,1111122 
DISL,ioos:station:DISL:CATA:1,2009-10-01T08:30:00Z,30.3085,-88.1395,2.663,7.13,1111122 
DISL,ioos:station:DISL:CATA:1,2009-10-01T09:00:00Z,30.3085,-88.1395,2.66,7.2,1111122 
DISL,ioos:station:DISL:CATA:1,2009-10-01T09:30:00Z,30.3085,-88.1395,2.669,7.22,1111122 
DISL,ioos:station:DISL:CATA:1,2009-10-01T10:00:00Z,30.3085,-88.1395,2.687,7.18,1111122 
DISL,ioos:station:DISL:CATA:1,2009-10-01T10:30:00Z,30.3085,-88.1395,2.707,7.12,1111122 
DISL,ioos:station:DISL:CATA:1,2009-10-01T11:00:00Z,30.3085,-88.1395,2.715,7.1,1111122 
DISL,ioos:station:DISL:CATA:1,2009-10-01T11:30:00Z,30.3085,-88.1395,2.738,7.01,1111122 
DISL,ioos:station:DISL:CATA:1,2009-10-01T12:00:00Z,30.3085,-88.1395,2.754,6.97,1111122 
DISL,ioos:station:DISL:CATA:1,2009-10-01T12:30:00Z,30.3085,-88.1395,2.777,6.94,1111122 
DISL,ioos:station:DISL:CATA:1,2009-10-01T13:00:00Z,30.3085,-88.1395,2.788,6.96,1111122 
DISL,ioos:station:DISL:CATA:1,2009-10-01T13:30:00Z,30.3085,-88.1395,2.8,6.91,1111122 
DISL,ioos:station:DISL:CATA:1,2009-10-01T14:00:00Z,30.3085,-88.1395,2.805,6.73,1111122 
DISL,ioos:station:DISL:CATA:1,2009-10-01T14:30:00Z,30.3085,-88.1395,2.803,6.75,1111122 
DISL,ioos:station:DISL:CATA:1,2009-10-01T15:00:00Z,30.3085,-88.1395,2.813,7.66,1111122 
DISL,ioos:station:DISL:CATA:1,2009-10-01T15:30:00Z,30.3085,-88.1395,2.806,15.67,1111122 
DISL,ioos:station:DISL:CATA:1,2009-10-01T16:00:00Z,30.3085,-88.1395,2.802,18.06,1111122 
DISL,ioos:station:DISL:CATA:1,2009-10-01T16:30:00Z,30.3085,-88.1395,2.794,19.23,1111122 
DISL,ioos:station:DISL:CATA:1,2009-10-01T17:00:00Z,30.3085,-88.1395,2.792,20.33,1111122 
DISL,ioos:station:DISL:CATA:1,2009-10-01T17:30:00Z,30.3085,-88.1395,2.766,20.99,1111122 
DISL,ioos:station:DISL:CATA:1,2009-10-01T18:00:00Z,30.3085,-88.1395,2.716,21.35,1111122 
DISL,ioos:station:DISL:CATA:1,2009-10-01T18:30:00Z,30.3085,-88.1395,2.714,13.49,1111122 
DISL,ioos:station:DISL:CATA:1,2009-10-01T19:00:00Z,30.3085,-88.1395,2.702,6.97,1111122 
DISL,ioos:station:DISL:CATA:1,2009-10-01T19:30:00Z,30.3085,-88.1395,2.679,6.7,1111122 
DISL,ioos:station:DISL:CATA:1,2009-10-01T20:00:00Z,30.3085,-88.1395,2.656,6.14,1111122 
DISL,ioos:station:DISL:CATA:1,2009-10-01T20:30:00Z,30.3085,-88.1395,2.651,6.36,1111122 
DISL,ioos:station:DISL:CATA:1,2009-10-01T21:00:00Z,30.3085,-88.1395,2.649,6.31,1111122 
DISL,ioos:station:DISL:CATA:1,2009-10-01T21:30:00Z,30.3085,-88.1395,2.651,6.21,1111122 
DISL,ioos:station:DISL:CATA:1,2009-10-01T22:00:00Z,30.3085,-88.1395,2.648,6.08,1111122 
DISL,ioos:station:DISL:CATA:1,2009-10-01T22:30:00Z,30.3085,-88.1395,2.656,5.99,1111122 
DISL,ioos:station:DISL:CATA:1,2009-10-01T23:00:00Z,30.3085,-88.1395,2.653,5.88,1111122 
DISL,ioos:station:DISL:CATA:1,2009-10-01T23:30:00Z,30.3085,-88.1395,2.654,5.86,1111122 
DISL,ioos:station:DISL:CATA:1,2009-10-02T00:00:00Z,30.3085,-88.1395,2.661,5.75,1111122 
DISL,ioos:station:DISL:CATA:1,2009-10-02T00:30:00Z,30.3085,-88.1395,2.682,5.77,1111122 
DISL,ioos:station:DISL:CATA:1,2009-10-02T01:00:00Z,30.3085,-88.1395,2.702,5.75,1111122 
DISL,ioos:station:DISL:CATA:1,2009-10-02T01:30:00Z,30.3085,-88.1395,2.715,5.78,1111122 
DISL,ioos:station:DISL:CATA:1,2009-10-02T02:00:00Z,30.3085,-88.1395,2.722,5.78,1111122 
DISL,ioos:station:DISL:CATA:1,2009-10-02T02:30:00Z,30.3085,-88.1395,2.728,5.8,1111122 
DISL,ioos:station:DISL:CATA:1,2009-10-02T03:00:00Z,30.3085,-88.1395,2.74,5.78,1111122 
DISL,ioos:station:DISL:CATA:1,2009-10-02T03:30:00Z,30.3085,-88.1395,2.753,5.81,1111122 
DISL,ioos:station:DISL:CATA:1,2009-10-02T04:00:00Z,30.3085,-88.1395,2.77,5.87,1111122 
DISL,ioos:station:DISL:CATA:1,2009-10-02T04:30:00Z,30.3085,-88.1395,2.776,8.77,1111122 
DISL,ioos:station:DISL:CATA:1,2009-10-02T05:00:00Z,30.3085,-88.1395,2.777,11.95,1111122 
DISL,ioos:station:DISL:CATA:1,2009-10-02T05:30:00Z,30.3085,-88.1395,2.779,13.77,1111122 
DISL,ioos:station:DISL:CATA:1,2009-10-02T06:00:00Z,30.3085,-88.1395,2.788,15.15,1111122 
DISL,ioos:station:DISL:CATA:1,2009-10-02T06:30:00Z,30.3085,-88.1395,2.789,17.43,1111122 
DISL,ioos:station:DISL:CATA:1,2009-10-02T07:00:00Z,30.3085,-88.1395,2.784,19.04,1111122 
DISL,ioos:station:DISL:CATA:1,2009-10-02T07:30:00Z,30.3085,-88.1395,2.769,18.15,1111122 
DISL,ioos:station:DISL:CATA:1,2009-10-02T08:00:00Z,30.3085,-88.1395,2.75,18.19,1111122 
DISL,ioos:station:DISL:CATA:1,2009-10-02T08:30:00Z,30.3085,-88.1395,2.737,17.0,1111122 
DISL,ioos:station:DISL:CATA:1,2009-10-02T09:00:00Z,30.3085,-88.1395,2.726,16.02,1111122 
DISL,ioos:station:DISL:CATA:1,2009-10-02T09:30:00Z,30.3085,-88.1395,2.71,18.58,1111122 
DISL,ioos:station:DISL:CATA:1,2009-10-02T10:00:00Z,30.3085,-88.1395,2.718,18.51,1111122 
DISL,ioos:station:DISL:CATA:1,2009-10-02T10:30:00Z,30.3085,-88.1395,2.736,15.39,1111122 
DISL,ioos:station:DISL:CATA:1,2009-10-02T11:00:00Z,30.3085,-88.1395,2.746,15.84,1111122 
DISL,ioos:station:DISL:CATA:1,2009-10-02T11:30:00Z,30.3085,-88.1395,2.767,14.34,1111122 
DISL,ioos:station:DISL:CATA:1,2009-10-02T12:00:00Z,30.3085,-88.1395,2.782,10.42,1111122 
DISL,ioos:station:DISL:CATA:1,2009-10-02T12:30:00Z,30.3085,-88.1395,2.795,10.3,1111122 
DISL,ioos:station:DISL:CATA:1,2009-10-02T13:00:00Z,30.3085,-88.1395,2.803,8.43,1111122 
DISL,ioos:station:DISL:CATA:1,2009-10-02T13:30:00Z,30.3085,-88.1395,2.796,7.87,1111122 
DISL,ioos:station:DISL:CATA:1,2009-10-02T14:00:00Z,30.3085,-88.1395,2.796,9.25,1111122 
DISL,ioos:station:DISL:CATA:1,2009-10-02T14:30:00Z,30.3085,-88.1395,2.792,14.88,1111122 
DISL,ioos:station:DISL:CATA:1,2009-10-02T15:00:00Z,30.3085,-88.1395,2.757,16.95,1111122 
DISL,ioos:station:DISL:CATA:1,2009-10-02T15:30:00Z,30.3085,-88.1395,2.743,17.29,1111122 
DISL,ioos:station:DISL:CATA:1,2009-10-02T16:00:00Z,30.3085,-88.1395,2.766,11.24,1111122 
DISL,ioos:station:DISL:CATA:1,2009-10-02T16:30:00Z,30.3085,-88.1395,2.763,8.28,1111122 
DISL,ioos:station:DISL:CATA:1,2009-10-02T17:00:00Z,30.3085,-88.1395,2.792,7.44,1111122 
DISL,ioos:station:DISL:CATA:1,2009-10-02T17:30:00Z,30.3085,-88.1395,2.78,6.73,1111122 
DISL,ioos:station:DISL:CATA:1,2009-10-02T18:00:00Z,30.3085,-88.1395,2.786,6.45,1111122 
DISL,ioos:station:DISL:CATA:1,2009-10-02T18:30:00Z,30.3085,-88.1395,2.754,6.54,1111122 
DISL,ioos:station:DISL:CATA:1,2009-10-02T19:00:00Z,30.3085,-88.1395,2.728,6.31,1111122 
DISL,ioos:station:DISL:CATA:1,2009-10-02T19:30:00Z,30.3085,-88.1395,2.725,6.14,1111122 
DISL,ioos:station:DISL:CATA:1,2009-10-02T20:00:00Z,30.3085,-88.1395,2.715,6.25,1111122 
DISL,ioos:station:DISL:CATA:1,2009-10-02T20:30:00Z,30.3085,-88.1395,2.692,6.2,1111122 
DISL,ioos:station:DISL:CATA:1,2009-10-02T21:00:00Z,30.3085,-88.1395,2.667,6.3,1111122 
DISL,ioos:station:DISL:CATA:1,2009-10-02T21:30:00Z,30.3085,-88.1395,2.66,6.23,1111122 
DISL,ioos:station:DISL:CATA:1,2009-10-02T22:00:00Z,30.3085,-88.1395,2.65,5.98,1111122 
DISL,ioos:station:DISL:CATA:1,2009-10-02T22:30:00Z,30.3085,-88.1395,2.652,5.71,1111122 
DISL,ioos:station:DISL:CATA:1,2009-10-02T23:00:00Z,30.3085,-88.1395,2.661,5.55,1111122 
DISL,ioos:station:DISL:CATA:1,2009-10-02T23:30:00Z,30.3085,-88.1395,2.696,5.48,1111122 
DISL,ioos:station:DISL:CATA:1,2009-10-03T00:00:00Z,30.3085,-88.1395,2.711,5.47,1111122 
DISL,ioos:station:DISL:CATA:1,2009-10-03T00:30:00Z,30.3085,-88.1395,2.71,5.56,1111122 
DISL,ioos:station:DISL:CATA:1,2009-10-03T01:00:00Z,30.3085,-88.1395,2.722,5.79,1111122 
DISL,ioos:station:DISL:CATA:1,2009-10-03T01:30:00Z,30.3085,-88.1395,2.739,5.8,1111122 
DISL,ioos:station:DISL:CATA:1,2009-10-03T02:00:00Z,30.3085,-88.1395,2.736,5.53,1111122 
DISL,ioos:station:DISL:CATA:1,2009-10-03T02:30:00Z,30.3085,-88.1395,2.76,5.59,1111122 
DISL,ioos:station:DISL:CATA:1,2009-10-03T03:00:00Z,30.3085,-88.1395,2.768,5.81,1111122 
DISL,ioos:station:DISL:CATA:1,2009-10-03T03:30:00Z,30.3085,-88.1395,2.765,5.82,1111122 
DISL,ioos:station:DISL:CATA:1,2009-10-03T04:00:00Z,30.3085,-88.1395,2.758,5.87,1111122 
DISL,ioos:station:DISL:CATA:1,2009-10-03T04:30:00Z,30.3085,-88.1395,2.758,5.95,1111122 
DISL,ioos:station:DISL:CATA:1,2009-10-03T05:00:00Z,30.3085,-88.1395,2.758,6.0,1111122 
DISL,ioos:station:DISL:CATA:1,2009-10-03T05:30:00Z,30.3085,-88.1395,2.745,5.93,1111122 
DISL,ioos:station:DISL:CATA:1,2009-10-03T06:00:00Z,30.3085,-88.1395,2.728,5.48,1111122 
DISL,ioos:station:DISL:CATA:1,2009-10-03T06:30:00Z,30.3085,-88.1395,2.711,5.57,1111122 
DISL,ioos:station:DISL:CATA:1,2009-10-03T07:00:00Z,30.3085,-88.1395,2.698,5.32,1111122 
DISL,ioos:station:DISL:CATA:1,2009-10-03T07:30:00Z,30.3085,-88.1395,2.668,5.27,1111122 
DISL,ioos:station:DISL:CATA:1,2009-10-03T08:00:00Z,30.3085,-88.1395,2.641,5.28,1111122 
DISL,ioos:station:DISL:CATA:1,2009-10-03T08:30:00Z,30.3085,-88.1395,2.61,5.38,1111122 
DISL,ioos:station:DISL:CATA:1,2009-10-03T09:00:00Z,30.3085,-88.1395,2.588,5.25,1111122 
DISL,ioos:station:DISL:CATA:1,2009-10-03T09:30:00Z,30.3085,-88.1395,2.569,5.2,1111122 
DISL,ioos:station:DISL:CATA:1,2009-10-03T10:00:00Z,30.3085,-88.1395,2.559,5.23,1111122 
DISL,ioos:station:DISL:CATA:1,2009-10-03T10:30:00Z,30.3085,-88.1395,2.56,5.26,1111122 
DISL,ioos:station:DISL:CATA:1,2009-10-03T11:00:00Z,30.3085,-88.1395,2.567,5.16,1111122 
DISL,ioos:station:DISL:CATA:1,2009-10-03T11:30:00Z,30.3085,-88.1395,2.572,5.18,1111122 
DISL,ioos:station:DISL:CATA:1,2009-10-03T12:00:00Z,30.3085,-88.1395,2.606,5.36,1111122 
DISL,ioos:station:DISL:CATA:1,2009-10-03T12:30:00Z,30.3085,-88.1395,2.636,5.45,1111122 
DISL,ioos:station:DISL:CATA:1,2009-10-03T13:00:00Z,30.3085,-88.1395,2.649,5.45,1111122 
DISL,ioos:station:DISL:CATA:1,2009-10-03T13:30:00Z,30.3085,-88.1395,2.65,5.46,1111122 
DISL,ioos:station:DISL:CATA:1,2009-10-03T14:00:00Z,30.3085,-88.1395,2.667,5.43,1111122 
DISL,ioos:station:DISL:CATA:1,2009-10-03T14:30:00Z,30.3085,-88.1395,2.688,5.41,1111122 
DISL,ioos:station:DISL:CATA:1,2009-10-03T15:00:00Z,30.3085,-88.1395,2.697,5.39,1111122 
DISL,ioos:station:DISL:CATA:1,2009-10-03T15:30:00Z,30.3085,-88.1395,2.701,5.36,1111122 
DISL,ioos:station:DISL:CATA:1,2009-10-03T16:00:00Z,30.3085,-88.1395,2.709,5.4,1111122 
DISL,ioos:station:DISL:CATA:1,2009-10-03T16:30:00Z,30.3085,-88.1395,2.732,5.38,1111122 
DISL,ioos:station:DISL:CATA:1,2009-10-03T17:00:00Z,30.3085,-88.1395,2.745,5.38,1111122 
DISL,ioos:station:DISL:CATA:1,2009-10-03T17:30:00Z,30.3085,-88.1395,2.76,5.47,1111122 
DISL,ioos:station:DISL:CATA:1,2009-10-03T18:00:00Z,30.3085,-88.1395,2.773,5.42,1111122 
DISL,ioos:station:DISL:CATA:1,2009-10-03T18:30:00Z,30.3085,-88.1395,2.782,5.44,1111122 
DISL,ioos:station:DISL:CATA:1,2009-10-03T19:00:00Z,30.3085,-88.1395,2.781,5.44,1111122 
DISL,ioos:station:DISL:CATA:1,2009-10-03T19:30:00Z,30.3085,-88.1395,2.764,5.36,1111122 
DISL,ioos:station:DISL:CATA:1,2009-10-03T20:00:00Z,30.3085,-88.1395,2.763,5.44,1111122 
DISL,ioos:station:DISL:CATA:1,2009-10-03T20:30:00Z,30.3085,-88.1395,2.769,5.46,1111122 
DISL,ioos:station:DISL:CATA:1,2009-10-03T21:00:00Z,30.3085,-88.1395,2.748,5.45,1111122 
DISL,ioos:station:DISL:CATA:1,2009-10-03T21:30:00Z,30.3085,-88.1395,2.752,5.48,1111122 
DISL,ioos:station:DISL:CATA:1,2009-10-03T22:00:00Z,30.3085,-88.1395,2.741,5.47,1111122 
DISL,ioos:station:DISL:CATA:1,2009-10-03T22:30:00Z,30.3085,-88.1395,2.751,5.32,1111122 
DISL,ioos:station:DISL:CATA:1,2009-10-03T23:00:00Z,30.3085,-88.1395,2.76,5.04,1111122 
DISL,ioos:station:DISL:CATA:1,2009-10-03T23:30:00Z,30.3085,-88.1395,2.783,4.97,1111122 
DISL,ioos:station:DISL:CATA:1,2009-10-04T00:00:00Z,30.3085,-88.1395,2.789,5.95,1111122 
DISL,ioos:station:DISL:CATA:1,2009-10-04T00:30:00Z,30.3085,-88.1395,2.804,8.5,1111122 
DISL,ioos:station:DISL:CATA:1,2009-10-04T01:00:00Z,30.3085,-88.1395,2.809,10.31,1111122 
DISL,ioos:station:DISL:CATA:1,2009-10-04T01:30:00Z,30.3085,-88.1395,2.822,13.1,1111122 
DISL,ioos:station:DISL:CATA:1,2009-10-04T02:00:00Z,30.3085,-88.1395,2.82,14.35,1111122 
DISL,ioos:station:DISL:CATA:1,2009-10-04T02:30:00Z,30.3085,-88.1395,2.819,16.01,1111122 
DISL,ioos:station:DISL:CATA:1,2009-10-04T03:00:00Z,30.3085,-88.1395,2.844,16.65,1111122 
DISL,ioos:station:DISL:CATA:1,2009-10-04T03:30:00Z,30.3085,-88.1395,2.85,16.85,1111122 
DISL,ioos:station:DISL:CATA:1,2009-10-04T04:00:00Z,30.3085,-88.1395,2.824,17.28,1111122 
DISL,ioos:station:DISL:CATA:1,2009-10-04T04:30:00Z,30.3085,-88.1395,2.827,18.03,1111122 
DISL,ioos:station:DISL:CATA:1,2009-10-04T05:00:00Z,30.3085,-88.1395,2.823,18.82,1111122 
DISL,ioos:station:DISL:CATA:1,2009-10-04T05:30:00Z,30.3085,-88.1395,2.807,19.39,1111122 
DISL,ioos:station:DISL:CATA:1,2009-10-04T06:00:00Z,30.3085,-88.1395,2.778,19.96,1111122 
DISL,ioos:station:DISL:CATA:1,2009-10-04T06:30:00Z,30.3085,-88.1395,2.766,17.48,1111122 
DISL,ioos:station:DISL:CATA:1,2009-10-04T07:00:00Z,30.3085,-88.1395,2.755,5.19,1111122 
DISL,ioos:station:DISL:CATA:1,2009-10-04T07:30:00Z,30.3085,-88.1395,2.718,4.34,1111122 
DISL,ioos:station:DISL:CATA:1,2009-10-04T08:00:00Z,30.3085,-88.1395,2.685,4.23,1111122 
DISL,ioos:station:DISL:CATA:1,2009-10-04T08:30:00Z,30.3085,-88.1395,2.643,4.08,1111122 
DISL,ioos:station:DISL:CATA:1,2009-10-04T09:00:00Z,30.3085,-88.1395,2.6,3.99,1111122 
DISL,ioos:station:DISL:CATA:1,2009-10-04T09:30:00Z,30.3085,-88.1395,2.561,3.8,1111122 
DISL,ioos:station:DISL:CATA:1,2009-10-04T10:00:00Z,30.3085,-88.1395,2.538,3.65,1111122 
DISL,ioos:station:DISL:CATA:1,2009-10-04T10:30:00Z,30.3085,-88.1395,2.533,3.58,1111122 
DISL,ioos:station:DISL:CATA:1,2009-10-04T11:00:00Z,30.3085,-88.1395,2.53,3.55,1111122 
DISL,ioos:station:DISL:CATA:1,2009-10-04T11:30:00Z,30.3085,-88.1395,2.533,3.52,1111122 
DISL,ioos:station:DISL:CATA:1,2009-10-04T12:00:00Z,30.3085,-88.1395,2.569,3.51,1111122 
DISL,ioos:station:DISL:CATA:1,2009-10-04T12:30:00Z,30.3085,-88.1395,2.608,3.5,1111122 
DISL,ioos:station:DISL:CATA:1,2009-10-04T13:00:00Z,30.3085,-88.1395,2.659,3.47,1111122 
DISL,ioos:station:DISL:CATA:1,2009-10-04T13:30:00Z,30.3085,-88.1395,2.68,3.45,1111122 
DISL,ioos:station:DISL:CATA:1,2009-10-04T14:00:00Z,30.3085,-88.1395,2.721,3.5,1111122 
DISL,ioos:station:DISL:CATA:1,2009-10-04T14:30:00Z,30.3085,-88.1395,2.759,3.52,1111122 
DISL,ioos:station:DISL:CATA:1,2009-10-04T15:00:00Z,30.3085,-88.1395,2.773,3.33,1111122 
DISL,ioos:station:DISL:CATA:1,2009-10-04T15:30:00Z,30.3085,-88.1395,2.799,3.23,1111122 
DISL,ioos:station:DISL:CATA:1,2009-10-04T16:00:00Z,30.3085,-88.1395,2.796,3.31,1111122 
DISL,ioos:station:DISL:CATA:1,2009-10-04T16:30:00Z,30.3085,-88.1395,2.786,3.29,1111122 
DISL,ioos:station:DISL:CATA:1,2009-10-04T17:00:00Z,30.3085,-88.1395,2.778,3.24,1111122 
DISL,ioos:station:DISL:CATA:1,2009-10-04T17:30:00Z,30.3085,-88.1395,2.816,3.45,1111122 
DISL,ioos:station:DISL:CATA:1,2009-10-04T18:00:00Z,30.3085,-88.1395,2.844,3.8,1111122 
DISL,ioos:station:DISL:CATA:1,2009-10-04T18:30:00Z,30.3085,-88.1395,2.817,3.45,1111122 
DISL,ioos:station:DISL:CATA:1,2009-10-04T19:00:00Z,30.3085,-88.1395,2.814,3.65,1111122 
DISL,ioos:station:DISL:CATA:1,2009-10-04T19:30:00Z,30.3085,-88.1395,2.82,3.79,1111122 
DISL,ioos:station:DISL:CATA:1,2009-10-04T20:00:00Z,30.3085,-88.1395,2.849,3.75,1111122 
DISL,ioos:station:DISL:CATA:1,2009-10-04T20:30:00Z,30.3085,-88.1395,2.84,3.67,1111122 
DISL,ioos:station:DISL:CATA:1,2009-10-04T21:00:00Z,30.3085,-88.1395,2.831,3.88,1111122 
DISL,ioos:station:DISL:CATA:1,2009-10-04T21:30:00Z,30.3085,-88.1395,2.872,3.94,1111122 
DISL,ioos:station:DISL:CATA:1,2009-10-04T22:00:00Z,30.3085,-88.1395,2.855,4.05,1111122 
DISL,ioos:station:DISL:CATA:1,2009-10-04T22:30:00Z,30.3085,-88.1395,2.854,4.08,1111122 
DISL,ioos:station:DISL:CATA:1,2009-10-04T23:00:00Z,30.3085,-88.1395,2.874,4.26,1111122 
DISL,ioos:station:DISL:CATA:1,2009-10-04T23:30:00Z,30.3085,-88.1395,2.882,4.31,1111122 
DISL,ioos:station:DISL:CATA:1,2009-10-05T00:00:00Z,30.3085,-88.1395,2.918,4.39,1111122 
DISL,ioos:station:DISL:CATA:1,2009-10-05T00:30:00Z,30.3085,-88.1395,2.905,4.38,1111122 
DISL,ioos:station:DISL:CATA:1,2009-10-05T01:00:00Z,30.3085,-88.1395,2.889,4.42,1111122 
DISL,ioos:station:DISL:CATA:1,2009-10-05T01:30:00Z,30.3085,-88.1395,2.926,4.42,1111122 
DISL,ioos:station:DISL:CATA:1,2009-10-05T02:00:00Z,30.3085,-88.1395,2.979,4.44,1111122 
DISL,ioos:station:DISL:CATA:1,2009-10-05T02:30:00Z,30.3085,-88.1395,2.979,4.51,1111122 
DISL,ioos:station:DISL:CATA:1,2009-10-05T03:00:00Z,30.3085,-88.1395,2.977,4.4,1111122 
DISL,ioos:station:DISL:CATA:1,2009-10-05T03:30:00Z,30.3085,-88.1395,2.978,4.39,1111122 
DISL,ioos:station:DISL:CATA:1,2009-10-05T04:00:00Z,30.3085,-88.1395,2.967,4.44,1111122 
DISL,ioos:station:DISL:CATA:1,2009-10-05T04:30:00Z,30.3085,-88.1395,2.963,4.05,1111122 
DISL,ioos:station:DISL:CATA:1,2009-10-05T05:00:00Z,30.3085,-88.1395,2.931,3.89,1111122 
DISL,ioos:station:DISL:CATA:1,2009-10-05T05:30:00Z,30.3085,-88.1395,2.914,3.84,1111122 
DISL,ioos:station:DISL:CATA:1,2009-10-05T06:00:00Z,30.3085,-88.1395,2.903,3.94,1111122 
DISL,ioos:station:DISL:CATA:1,2009-10-05T06:30:00Z,30.3085,-88.1395,2.882,4.25,1111122 
DISL,ioos:station:DISL:CATA:1,2009-10-05T07:00:00Z,30.3085,-88.1395,2.871,4.23,1111122 
DISL,ioos:station:DISL:CATA:1,2009-10-05T07:30:00Z,30.3085,-88.1395,2.85,4.21,1111122 
DISL,ioos:station:DISL:CATA:1,2009-10-05T08:00:00Z,30.3085,-88.1395,2.813,4.16,1111122 
DISL,ioos:station:DISL:CATA:1,2009-10-05T08:30:00Z,30.3085,-88.1395,2.776,4.2,1111122 
DISL,ioos:station:DISL:CATA:1,2009-10-05T09:00:00Z,30.3085,-88.1395,2.737,4.08,1111122 
DISL,ioos:station:DISL:CATA:1,2009-10-05T09:30:00Z,30.3085,-88.1395,2.72,4.16,1111122 
DISL,ioos:station:DISL:CATA:1,2009-10-05T10:00:00Z,30.3085,-88.1395,2.713,4.05,1111122 
DISL,ioos:station:DISL:CATA:1,2009-10-05T10:30:00Z,30.3085,-88.1395,2.66,3.78,1111122 
DISL,ioos:station:DISL:CATA:1,2009-10-05T11:00:00Z,30.3085,-88.1395,2.617,3.56,1111122 
DISL,ioos:station:DISL:CATA:1,2009-10-05T11:30:00Z,30.3085,-88.1395,2.594,3.41,1111122 
DISL,ioos:station:DISL:CATA:1,2009-10-05T12:00:00Z,30.3085,-88.1395,2.62,3.29,1111122 
DISL,ioos:station:DISL:CATA:1,2009-10-05T12:30:00Z,30.3085,-88.1395,2.602,3.28,1111122 
DISL,ioos:station:DISL:CATA:1,2009-10-05T13:00:00Z,30.3085,-88.1395,2.627,3.82,1111122 
DISL,ioos:station:DISL:CATA:1,2009-10-05T13:30:00Z,30.3085,-88.1395,2.593,3.68,1111122 
DISL,ioos:station:DISL:CATA:1,2009-10-05T14:00:00Z,30.3085,-88.1395,2.555,3.77,1111122 
DISL,ioos:station:DISL:CATA:1,2009-10-05T14:30:00Z,30.3085,-88.1395,2.598,4.13,1111122 
DISL,ioos:station:DISL:CATA:1,2009-10-05T15:00:00Z,30.3085,-88.1395,2.591,4.13,1111122 
DISL,ioos:station:DISL:CATA:1,2009-10-05T15:30:00Z,30.3085,-88.1395,2.582,4.12,1111122 
DISL,ioos:station:DISL:CATA:1,2009-10-05T16:00:00Z,30.3085,-88.1395,2.594,4.17,1111122 
DISL,ioos:station:DISL:CATA:1,2009-10-05T16:30:00Z,30.3085,-88.1395,2.6,4.12,1111122 
DISL,ioos:station:DISL:CATA:1,2009-10-05T17:00:00Z,30.3085,-88.1395,2.607,3.87,1111122 
DISL,ioos:station:DISL:CATA:1,2009-10-05T17:30:00Z,30.3085,-88.1395,2.631,3.83,1111122 
DISL,ioos:station:DISL:CATA:1,2009-10-05T18:00:00Z,30.3085,-88.1395,2.629,3.79,1111122 
DISL,ioos:station:DISL:CATA:1,2009-10-05T18:30:00Z,30.3085,-88.1395,2.656,3.81,1111122 
DISL,ioos:station:DISL:CATA:1,2009-10-05T19:00:00Z,30.3085,-88.1395,2.653,3.83,1111122 
DISL,ioos:station:DISL:CATA:1,2009-10-05T19:30:00Z,30.3085,-88.1395,2.665,3.76,1111122 
DISL,ioos:station:DISL:CATA:1,2009-10-05T20:00:00Z,30.3085,-88.1395,2.678,3.47,1111122 
DISL,ioos:station:DISL:CATA:1,2009-10-05T20:30:00Z,30.3085,-88.1395,2.702,3.46,1111122 
DISL,ioos:station:DISL:CATA:1,2009-10-05T21:00:00Z,30.3085,-88.1395,2.678,3.87,1111122 
DISL,ioos:station:DISL:CATA:1,2009-10-05T21:30:00Z,30.3085,-88.1395,2.697,4.04,1111122 
DISL,ioos:station:DISL:CATA:1,2009-10-05T22:00:00Z,30.3085,-88.1395,2.701,5.03,1111122 
DISL,ioos:station:DISL:CATA:1,2009-10-05T22:30:00Z,30.3085,-88.1395,2.724,5.47,1111122 
DISL,ioos:station:DISL:CATA:1,2009-10-05T23:00:00Z,30.3085,-88.1395,2.736,5.87,1111122 
DISL,ioos:station:DISL:CATA:1,2009-10-05T23:30:00Z,30.3085,-88.1395,2.759,6.83,1111122 
DISL,ioos:station:DISL:CATA:1,2009-10-06T00:00:00Z,30.3085,-88.1395,2.762,7.49,1111122 
DISL,ioos:station:DISL:CATA:1,2009-10-06T00:30:00Z,30.3085,-88.1395,2.797,8.77,1111122 
DISL,ioos:station:DISL:CATA:1,2009-10-06T01:00:00Z,30.3085,-88.1395,2.835,9.21,1111122 
DISL,ioos:station:DISL:CATA:1,2009-10-06T01:30:00Z,30.3085,-88.1395,2.893,9.74,1111122 
DISL,ioos:station:DISL:CATA:1,2009-10-06T02:00:00Z,30.3085,-88.1395,2.9,10.66,1111122 
DISL,ioos:station:DISL:CATA:1,2009-10-06T02:30:00Z,30.3085,-88.1395,2.925,11.45,1111122 
DISL,ioos:station:DISL:CATA:1,2009-10-06T03:00:00Z,30.3085,-88.1395,2.927,11.74,1111122 
DISL,ioos:station:DISL:CATA:1,2009-10-06T03:30:00Z,30.3085,-88.1395,2.935,11.6,1111122 
DISL,ioos:station:DISL:CATA:1,2009-10-06T04:00:00Z,30.3085,-88.1395,2.926,11.97,1111122 
DISL,ioos:station:DISL:CATA:1,2009-10-06T04:30:00Z,30.3085,-88.1395,2.916,12.24,1111122 
DISL,ioos:station:DISL:CATA:1,2009-10-06T05:00:00Z,30.3085,-88.1395,2.886,13.34,1111122 
DISL,ioos:station:DISL:CATA:1,2009-10-06T05:30:00Z,30.3085,-88.1395,2.858,12.96,1111122 
DISL,ioos:station:DISL:CATA:1,2009-10-06T06:00:00Z,30.3085,-88.1395,2.85,13.13,1111122 
DISL,ioos:station:DISL:CATA:1,2009-10-06T06:30:00Z,30.3085,-88.1395,2.819,10.99,1111122 
DISL,ioos:station:DISL:CATA:1,2009-10-06T07:00:00Z,30.3085,-88.1395,2.8,7.61,1111122 
DISL,ioos:station:DISL:CATA:1,2009-10-06T07:30:00Z,30.3085,-88.1395,2.783,7.16,1111122 
DISL,ioos:station:DISL:CATA:1,2009-10-06T08:00:00Z,30.3085,-88.1395,2.75,6.87,1111122 
DISL,ioos:station:DISL:CATA:1,2009-10-06T08:30:00Z,30.3085,-88.1395,2.712,6.57,1111122 
DISL,ioos:station:DISL:CATA:1,2009-10-06T09:00:00Z,30.3085,-88.1395,2.679,6.13,1111122 
DISL,ioos:station:DISL:CATA:1,2009-10-06T09:30:00Z,30.3085,-88.1395,2.646,5.89,1111122 
DISL,ioos:station:DISL:CATA:1,2009-10-06T10:00:00Z,30.3085,-88.1395,2.605,5.72,1111122 
DISL,ioos:station:DISL:CATA:1,2009-10-06T10:30:00Z,30.3085,-88.1395,2.581,5.83,1111122 
DISL,ioos:station:DISL:CATA:1,2009-10-06T11:00:00Z,30.3085,-88.1395,2.537,5.63,1111122 
DISL,ioos:station:DISL:CATA:1,2009-10-06T11:30:00Z,30.3085,-88.1395,2.5,5.62,1111122 
DISL,ioos:station:DISL:CATA:1,2009-10-06T12:00:00Z,30.3085,-88.1395,2.477,5.63,1111122 
DISL,ioos:station:DISL:CATA:1,2009-10-06T12:30:00Z,30.3085,-88.1395,2.468,5.63,1111122 
DISL,ioos:station:DISL:CATA:1,2009-10-06T13:00:00Z,30.3085,-88.1395,2.453,5.66,1111122 
DISL,ioos:station:DISL:CATA:1,2009-10-06T13:30:00Z,30.3085,-88.1395,2.456,5.62,1111122 
DISL,ioos:station:DISL:CATA:1,2009-10-06T14:00:00Z,30.3085,-88.1395,2.457,5.66,1111122 
DISL,ioos:station:DISL:CATA:1,2009-10-06T14:30:00Z,30.3085,-88.1395,2.458,5.34,1111122 
DISL,ioos:station:DISL:CATA:1,2009-10-06T15:00:00Z,30.3085,-88.1395,2.468,5.47,1111122 